541027 711  1.1-  2.6-    660718 693  0.1+  1.1+    910806 657  0.7-  0.5-  

541027 711  1.3-  2.3-    660718 693  0.6+  0.1-    910806 657  0.6-  0.0   

541112 754  0.7+  1.0+    660720 076  0.6+  0.5-    910807 675  0.3-  1.1-  

541113 754  0.4+  1.0+    660720 076  0.1+  0.6+    910807 675  0.4-  1.2-  

541115 754  1.2+  0.5-    660720 076  0.6+  1.7+    910811 801  0.0   0.2+  

541115 754  2.4+  0.0     660808 056  0.9+  1.4+    910811 801  0.0   0.2+  

541116 754  1.2+  0.6+    660808 056 (2.5+  2.9-)   910812 801  0.1+  0.1+  

541116 754  2.3-  1.3+    660809 076  2.1+  0.7+    910812 801  0.0   0.1+  

541117 754  0.1+  0.6-    660809 076  0.1-  0.9+    910812 323  0.5-  0.0   

541117 662  1.7-  0.6+    660817 076  1.1+  0.0     910814 657  0.1-  0.5+  

541117 662  0.7-  0.2+    660817 076  2.2+  1.1+    910814 657  0.2-  0.4+  

541128 754  1.3+  0.1+    660819 076  0.3+  0.9+    910814 323  0.7-  0.8+  

541128 754  1.7+  1.1+    660819 076  0.4-  0.7+    910815 657  0.1+  0.6+  

1955/                     660917 693  0.0   0.8-    910815 657  0.1-  1.0+  

550115 662 (2.5+  2.8+)   661016 693 (2.9+  1.0+)   910815 323  1.4+  0.5+  

550921 662  1.1-  0.5-    1977/                     910904 809  0.4-  0.0   

550921 662  0.5-  0.3+    771217 801  1.2-  1.2+    910904 809  0.0   0.9+  

550927 662  0.5+  0.0     1978/                     910904 809  0.2-  1.0+  

550927 662  0.3+  0.0     780112 801 (4.6-  1.3+)   910904 657  0.5+  0.5+  

550927 662  0.3+  0.1+    780210 323  1.2-  0.2+    910904 657  0.3+  0.4+  

551011 711  0.8+  0.5-    780307 801  0.1-  0.7-    910905 809  0.2-  1.4-  

551012 711  0.8+  0.5-    780310 372 (0.8-  3.3-)   910905 809  0.7+  0.3-  

551012 711  1.0+  0.1+    780312 372  2.3+  2.4+ Y  910905 809  0.3+  0.0   

551013 711  0.5-  0.9-    780407 879  0.0   0.6-    910905 657  0.9+  0.1+  

551013 711  1.5+  0.2+    780407 879  2.1-  0.1+    910905 657  0.3+  0.7+  

551014 711  1.1+  0.6+    780410 801  0.4-  0.7+    910906 809  1.7+  0.3+  

551014 711  0.6+  0.5+    780412 095  1.2-  0.8+    910906 809  0.7+  0.7+  

551019 711  2.4+  0.7+    780412 095  1.7-  0.4-    910906 809  0.3+  1.1+  

551019 711  0.1+  1.1+    780502 675  0.2+  1.2+    910906 801  0.7+  0.1+  

551020 711 (0.8+  3.4+)   780504 801  0.3-  0.6+    910906 801  0.5+  0.1-  

551020 711  1.2+  0.1-    780505 095  0.2+  1.1-    910907 809  0.0   1.1-  

551021 711  1.0+  0.4+    780505 095  0.6-  1.1-    910907 809  0.5-  1.0-  

551021 711 (2.9-  1.3-)   780609 323  0.2+  0.6+    910908 801  1.0+  0.5+  

551024 662  1.1-  0.1+    780611 801 (3.3-  0.2-)   910908 801  1.1+  0.5+  

551024 662  1.0-  0.1+    780629 323  0.1-  0.8+    910909 323 (3.2+  0.5+) 

551024 662  1.3+  0.3+    780730 474  1.4-  0.0     910913 801  1.0+  0.4+  

551107 662  1.1-  0.2-    780730 474  1.9-  0.3-    910913 801  1.0+  0.6+  

551107 662  0.7-  0.3+    780805 474  0.6-  0.2-    911004 801  2.0+  0.0   

551107 662  0.6-  0.3+    780805 474  0.2-  1.0-    911005 801  0.7+  0.4+  

551109 711  0.3+  0.1-    780808 323  1.4-  0.4+    911005 801  0.9+  0.3+  

551109 711  0.5-  2.5-    780826 323  1.6-  0.6+    911007 801  1.5+  0.2+  

551111 711  0.5+  1.2-    1979/                     911008 801  1.2+  0.1+  

551111 711  0.1-  0.9-    790626 801 (1.5+  3.9+)   1992/                   

551112 711  0.1+  0.2-    790717 323  0.3+  0.5+    921023 691  0.7-  0.8+  

551112 711  0.3+  1.8-    790818 801  1.1+  0.5-    921023 691  0.4-  1.1+  

551113 711  2.2-  1.3-    790820 210  0.9-  0.5-    921023 691  1.1-  1.1+  

551113 711  1.4-  0.9-    790820 210 (4.0-  1.4-)   921202 691  1.2+  0.5+  

1965/                     790916 801  2.4-  0.5+    921202 691  0.0   0.7+  

650405 387 (1.4-  4.2+)   790917 801  1.1-  0.2+    921202 691  0.2+  0.4+  

650405 387 (6.7+  1.3+)   790917 801 (3.7-  2.7+)   1993/                   

650501 689 (3.3+  0.7+)   790918 801  1.8+  0.7+    930123 691  0.2+  0.0   

650501 689  0.7+  1.7+    790920 801  1.4-  1.3-    930123 691  0.3-  0.2+  

650502 689  1.8+  0.7+    790921 801  1.8-  2.4+    930123 691  0.9-  0.0   

650502 689  2.1+  0.9+    790924 095  0.2-  1.4-    931021 691  1.0+  1.3+  

650522 689  2.0+  0.4+    1989/                     931021 691  0.5-  0.7+  

650523 689  2.4+  0.3+    891209 675  0.0   0.1+    931021 691  1.0+  0.3-  





  54P/de Vico-Swift 

Epoch 2002 July 25.0 TT = JDT 2452480.5  

T 2002 Aug. 7.45237 TT                                  Nakano

q   2.1460530            (2000.0)            P               Q

n   0.13471295     Peri.    2.13738     +0.99982178     -0.01877501

a   3.7687426      Node   358.93239     +0.01536147     +0.86995634

e   0.4305653      Incl.    6.09250     +0.01097436     +0.49277121

P   7.32

From 18 observations 1894-1965, mean residual 2".02.

Residuals in seconds of arc 

1894/                     1965/                     650902 689  1.6+  1.4+  

941123 020  5.1+  0.4-    650804 689  0.0   0.4-    650902 689  1.5+  1.4+  

941202 546  0.6+  1.9-    650804 693  2.2-  0.8-    650925 689  0.8+  1.8+  

941216 020  4.3-  0.5-    650804 689  1.2-  0.3-    650925 689  0.9+  1.6+  

941228 020  1.3+  3.1-    650806 689  0.7-  1.0-    651015 689  2.3-  1.3+  

1895/                     650806 689  1.5-  0.9-    651015 689  2.2-  1.3+  

950126 662  1.2+  6.4-    650825 689  0.1+  1.3+    

950130 662 (3.7-  9.0-)   650825 689  0.2-  1.5+    





  57P/du Toit-Neujmin-Delporte 

Epoch 2002 July 25.0 TT = JDT 2452480.5  

T 2002 July 31.19245 TT                                 Nakano

q   1.7295100            (2000.0)            P               Q

n   0.15361424     Peri.  115.24563     +0.56153904     +0.82741440

a   3.4528819      Node   188.92864     -0.77590702     +0.52330324

e   0.4991112      Incl.    2.84442     -0.28747557     +0.20381150

P   6.42

From 111 observations 1983-1997, mean residual 0".94.  Nongravitational

   parameters A1 = +0.28 +/- 0.06, A2 = +0.0238 +/- 0.0018.

Residuals in seconds of arc 

1983/                     960810 118  0.8+  0.9-    960917 118  0.2+  0.9-  

830520 675  1.3+  0.1+    960811 118  0.3+  1.2-    960919 696  0.4+  0.1-  

830521 675  1.9+  1.3-    960811 118  1.1+  0.5-    960919 696  0.6+  0.1+  

830609 707  1.6-  0.4+    960813 107  1.6-  2.1-    960919 696  0.7+  0.0   

830710 707  2.0-  0.3-    960813 107  0.1+  1.1-    960921 691  0.5+  0.2-  

830903 095  0.7-  1.1+    960815 897 (6.3-  3.3-)   960921 691  0.3+  0.6-  

830904 801  1.1-  2.0+    960815 367 (2.4-  1.3-)   960922 897  2.2-  1.3-  

830904 688  0.5-  0.0     960815 367 (3.1-  1.7-)   960922 897  0.7-  1.4-  

830904 688 (5.4-  2.4+)   960815 900 (2.8-  1.5-)   960922 897  1.7-  0.9-  

830913 707  1.5+  0.5+    960816 472 (3.7-  1.5-)   961001 118  1.0+  0.6+  

830914 688  1.3+  0.9+    960817 472 (3.1-  0.9-)   961003 118  0.5-  0.6-  

830914 688  1.3-  0.1-    960817 472 (3.5-  1.1-)   961003 118  0.0   0.0   

831008 801 (2.6-  4.2+)   960817 900 (2.7-  1.6-)   961003 118  0.4-  0.4-  

1989/                     960817 900 (5.1-  1.8-)   961003 118  0.3-  0.6-  

890522 675  0.1+  1.3-    960818 472 (5.3-  1.5-)   961005 900  2.0-  0.3-  

890522 675  0.6-  1.1-    960818 388  1.3+  0.5-    961005 900  1.9-  0.7-  

890522 675  0.3+  1.5-    960818 388  1.5+  0.1+    961010 360  0.7+  0.4-  

890523 675  0.0   1.6-    960818 388  0.4+  0.2-    961010 360  1.0+  0.3-  

890523 675  0.5-  1.2-    960818 388  1.1+  0.4-    961010 360  0.6+  0.2-  

890523 675  0.0   1.0-    960818 388  0.9+  0.4-    961020 897  0.8-  0.2-  

890526 372  1.2-  1.0- Y  960818 388  0.5+  0.3-    961020 897  0.8-  0.2+  

1995/                     960820 118  0.3+  0.1+    961020 897  0.5+  0.7-  

950523 691  0.9-  2.2-    960820 118  0.0   0.0     961103 900  0.3+  0.1+  

950523 691  0.9-  2.1-    960821 118  1.5-  0.9+    961103 900  0.5-  0.5+  

950523 691  0.0   2.1-    960821 118  0.0   1.4+    961106 360  0.6+  0.3+  

950523 691  0.6-  1.4-    960821 557  0.2+  0.2+    961106 360  0.5+  0.1-  

950523 691  0.8-  2.2-    960821 557  0.1+  0.1+    961115 696  0.7+  0.3-  

950525 691  1.2-  1.4-    960822 118  0.9+  0.2-    961115 696  0.8+  0.1+  

950525 691  1.0-  1.3-    960823 118  0.4+  0.2+    961116 897 (2.0-  3.0-) 

950525 691  0.9-  2.1-    960824 118  0.7-  0.5-    961116 897  1.9+  1.1-  

950525 691 (2.7+  3.7-)   960824 360  0.6+  0.2-    961116 897  0.1+  1.2-  

1996/                     960824 360  0.7+  0.1-    961116 360  0.8+  0.4-  

960724 360  1.1+  0.2-    960825 118  0.3-  0.5-    961116 360  1.0+  0.5-  

960724 360  0.9+  0.2-    960825 118  0.2-  0.6-    961119 900  0.5-  0.7-  

960726 360  0.3-  1.0-    960825 118  0.4-  0.8-    961119 900  0.4-  0.4-  

960726 360  0.1+  0.7-    960903 388  0.1-  0.5-    961201 108 (3.5+  1.5+) 

960727 900  1.5-  1.4-    960903 388  0.6+  0.2-    961201 108 (4.9+  1.2+) 

960801 900 (3.0-  0.8-)   960903 388  0.2-  0.3-    961201 108  2.0+  0.5-  

960801 900 (2.9-  1.1-)   960903 388  0.1+  0.1-    961203 360 (2.7+  0.0 ) 

960804 605 (4.8-  3.7-)   960903 388  2.0-  0.5-    961203 360 (2.6+  0.2+) 

960804 605 (3.6-  1.8-)   960905 388  0.4-  0.0     1997/                   

960804 605 (2.9-  0.9-)   960907 367  0.8-  0.3-    970109 360  1.4+  1.0+  

960806 605  0.9+  1.6+    960910 360  0.8+  0.1+    970112 360  0.1-  0.1+  

960806 605 (4.7-  2.0-)   960910 360  0.4+  0.1+    970112 360  1.4+  0.3-  

960807 118  0.5-  0.8-    960911 897 (3.1-  1.0-)   970305 118  0.4-  1.9-  

960807 118  0.6+  1.0-    960915 900  2.0-  0.7-    970305 118  0.8+  2.1-  

960810 118  0.8+  0.8-    960915 900  1.0-  0.2-    970305 118  1.3+  1.8-  





  65P/Gunn 

Epoch 2003 May 1.0 TT = JDT 2452760.5  

T 2003 May 11.86449 TT                                  Nakano

q   2.4459463            (2000.0)            P               Q

n   0.14490110     Peri.  196.37525     -0.09506656     +0.98125971

